Find Starlink 1484

NORAD ID: 45756 Int'l Des: 2020-038 Owner: SPXS Country: US Constellation: starlink decayed
LEOCIRCULAR
Vis

Historical Track — Mar 22, 2026

正在加载3D地球...

关于 Starlink 1484

正在加载描述...

高度历史

Loading altitude history...

两行轨道根数

1 45756U 20038AC 26081.26720677 .10144726 12492-4 26315-3 0 9991
2 45756 52.9856 350.0228 0005610 253.0186 107.0247 16.45536278320734
Epoch: Mar 22, 2026 • Age: 575 hours

当前状态

Position data unavailable
发射日期 Jun 13, 2020
运行时间 5.8 years
衰减日期 Mar 22, 2026
类型 internet

技术详情

分类 Payload
质量 260.00 kg
干质量 248.00 kg
总质量 260.00 kg
长度 0.20 m
直径 2.80 m
跨度 9.00 m
形状 Box + pan
制造商 SPXS
平台类型 Starlink
阶段状态 Reentered
所有者/国家 SPXS/US

Most Searched